| time (UTC) | temp C | wind direction | speed KPH | gust KPH | rain 1hr cm | rain 24hr cm | rain mn cm | humidity % | barometer mb |
| 20260507160012 | 11 | 59 | 4.8 | 11.3 | 0.00 | 0.00 | 0.00 | 33 | 1011.6 |
| 20260507155509 | 11 | 43 | 6.4 | 11.3 | 0.00 | 0.00 | 0.00 | 33 | 1011.7 |
| 20260507155008 | 11 | 17 | 6.4 | 12.9 | 0.00 | 0.00 | 0.00 | 34 | 1011.7 |
| 20260507154518 | 11 | 32 | 8.0 | 12.9 | 0.00 | 0.00 | 0.00 | 34 | 1011.7 |
| 20260507154010 | 11 | 332 | 3.2 | 8.0 | 0.00 | 0.00 | 0.00 | 34 | 1011.6 |
| 20260507153507 | 11 | 11 | 3.2 | 8.0 | 0.00 | 0.00 | 0.00 | 33 | 1011.5 |
| 20260507153028 | 12 | 11 | 4.8 | 8.0 | 0.00 | 0.00 | 0.00 | 31 | 1011.5 |
| 20260507152508 | 12 | 306 | 1.6 | 9.7 | 0.00 | 0.00 | 0.00 | 32 | 1011.4 |
| 20260507152004 | 12 | 5 | 3.2 | 9.7 | 0.00 | 0.00 | 0.00 | 31 | 1011.4 |
| 20260507151508 | 12 | 17 | 4.8 | 11.3 | 0.00 | 0.00 | 0.00 | 33 | 1011.3 |
| 20260507151004 | 12 | 15 | 4.8 | 11.3 | 0.00 | 0.00 | 0.00 | 31 | 1011.3 |
| 20260507150504 | 12 | 26 | 3.2 | 11.3 | 0.00 | 0.00 | 0.00 | 32 | 1011.4 |
| 20260507150013 | 12 | 43 | 6.4 | 11.3 | 0.00 | 0.00 | 0.00 | 34 | 1011.4 |
| 20260507145504 | 11 | 31 | 3.2 | 8.0 | 0.00 | 0.00 | 0.00 | 30 | 1011.3 |
| 20260507145006 | 11 | 21 | 3.2 | 8.0 | 0.00 | 0.00 | 0.00 | 32 | 1011.3 |
| 20260507144518 | 12 | 330 | 1.6 | 8.0 | 0.00 | 0.00 | 0.00 | 31 | 1011.2 |
| 20260507144007 | 11 | 360 | 4.8 | 6.4 | 0.00 | 0.00 | 0.00 | 31 | 1011.5 |
| 20260507143507 | 11 | 347 | 4.8 | 6.4 | 0.00 | 0.00 | 0.00 | 30 | 1011.5 |
| 20260507143026 | 11 | 117 | 1.6 | 4.8 | 0.00 | 0.00 | 0.00 | 34 | 1011.6 |
| 20260507142507 | 10 | 117 | 1.6 | 4.8 | 0.00 | 0.00 | 0.00 | 36 | 1011.5 |
| 20260507142011 | 10 | 117 | 1.6 | 3.2 | 0.00 | 0.00 | 0.00 | 36 | 1011.5 |
| 20260507141526 | 10 | 272 | 0.0 | 4.8 | 0.00 | 0.00 | 0.00 | 38 | 1011.5 |
| 20260507141011 | 9 | 277 | 0.0 | 6.4 | 0.00 | 0.00 | 0.00 | 39 | 1011.5 |
| 20260507140504 | 9 | 360 | 4.8 | 9.7 | 0.00 | 0.00 | 0.00 | 38 | 1011.5 |
| 20260507140013 | 8 | 288 | 3.2 | 9.7 | 0.00 | 0.00 | 0.00 | 41 | 1011.5 |
| 20260507135506 | 7 | 289 | 4.8 | 9.7 | 0.00 | 0.00 | 0.00 | 43 | 1011.5 |
| 20260507135005 | 6 | 264 | 4.8 | 9.7 | 0.00 | 0.00 | 0.00 | 49 | 1011.4 |
| 20260507134514 | 6 | 276 | 4.8 | 9.7 | 0.00 | 0.00 | 0.00 | 46 | 1011.3 |
| 20260507134004 | 6 | 283 | 4.8 | 11.3 | 0.00 | 0.00 | 0.00 | 47 | 1011.3 |
| 20260507133510 | 6 | 273 | 4.8 | 11.3 | 0.00 | 0.00 | 0.00 | 48 | 1011.3 |
| 20260507133021 | 5 | 261 | 4.8 | 9.7 | 0.00 | 0.00 | 0.00 | 47 | 1011.3 |
| 20260507132508 | 5 | 264 | 4.8 | 9.7 | 0.00 | 0.00 | 0.00 | 46 | 1011.3 |
| 20260507132008 | 5 | 252 | 4.8 | 12.9 | 0.00 | 0.00 | 0.00 | 47 | 1011.1 |
| 20260507131532 | 5 | 265 | 8.0 | 12.9 | 0.00 | 0.00 | 0.00 | 46 | 1011.1 |
| 20260507131009 | 5 | 287 | 11.3 | 14.5 | 0.00 | 0.00 | 0.00 | 46 | 1011.1 |
| 20260507130508 | 4 | 270 | 11.3 | 14.5 | 0.00 | 0.00 | 0.00 | 48 | 1011.1 |
| 20260507130025 | 4 | 284 | 9.7 | 16.1 | 0.00 | 0.00 | 0.00 | 48 | 1011.0 |
| 20260507125510 | 3 | 288 | 11.3 | 16.1 | 0.00 | 0.00 | 0.00 | 49 | 1010.9 |
| 20260507125011 | 3 | 268 | 9.7 | 16.1 | 0.00 | 0.00 | 0.00 | 48 | 1010.8 |
| 20260507124515 | 3 | 267 | 9.7 | 16.1 | 0.00 | 0.00 | 0.00 | 49 | 1010.7 |
| 20260507124009 | 3 | 258 | 11.3 | 16.1 | 0.00 | 0.00 | 0.00 | 49 | 1010.7 |
| 20260507123506 | 3 | 273 | 11.3 | 16.1 | 0.00 | 0.00 | 0.00 | 50 | 1010.6 |
| 20260507123022 | 2 | 262 | 11.3 | 16.1 | 0.00 | 0.00 | 0.00 | 49 | 1010.6 |
| 20260507122507 | 2 | 251 | 9.7 | 14.5 | 0.00 | 0.00 | 0.00 | 50 | 1010.5 |
| 20260507122006 | 2 | 267 | 8.0 | 14.5 | 0.00 | 0.00 | 0.00 | 51 | 1010.5 |
| 20260507121518 | 2 | 259 | 8.0 | 14.5 | 0.00 | 0.00 | 0.00 | 50 | 1010.4 |
| 20260507121008 | 2 | 245 | 9.7 | 14.5 | 0.00 | 0.00 | 0.00 | 50 | 1010.5 |
| 20260507120508 | 2 | 257 | 8.0 | 14.5 | 0.00 | 0.00 | 0.00 | 51 | 1010.4 |
| 20260507120022 | 2 | 271 | 11.3 | 14.5 | 0.00 | 0.00 | 0.00 | 51 | 1010.4 |
| 20260507115511 | 1 | 260 | 9.7 | 14.5 | 0.00 | 0.00 | 0.00 | 51 | 1010.3 |
| 20260507115009 | 1 | 267 | 9.7 | 16.1 | 0.00 | 0.00 | 0.00 | 51 | 1010.3 |
| 20260507114523 | 1 | 257 | 9.7 | 16.1 | 0.00 | 0.00 | 0.00 | 51 | 1010.3 |
| 20260507114008 | 1 | 262 | 9.7 | 16.1 | 0.00 | 0.00 | 0.00 | 51 | 1010.2 |
| 20260507113510 | 1 | 276 | 12.9 | 16.1 | 0.00 | 0.00 | 0.00 | 51 | 1010.2 |
| 20260507113012 | 1 | 267 | 8.0 | 14.5 | 0.00 | 0.00 | 0.00 | 50 | 1010.2 |
| 20260507112504 | 2 | 250 | 8.0 | 14.5 | 0.00 | 0.00 | 0.00 | 50 | 1010.2 |
| 20260507112006 | 2 | 268 | 8.0 | 14.5 | 0.00 | 0.00 | 0.00 | 49 | 1010.2 |
| 20260507111518 | 2 | 273 | 9.7 | 14.5 | 0.00 | 0.00 | 0.00 | 48 | 1010.1 |
| 20260507111007 | 2 | 275 | 9.7 | 14.5 | 0.00 | 0.00 | 0.00 | 47 | 1010.1 |
| 20260507110506 | 2 | 259 | 8.0 | 16.1 | 0.00 | 0.00 | 0.00 | 47 | 1010.0 |
| 20260507110022 | 2 | 259 | 8.0 | 16.1 | 0.00 | 0.00 | 0.00 | 48 | 1010.0 |
| 20260507105508 | 2 | 272 | 9.7 | 14.5 | 0.00 | 0.00 | 0.00 | 48 | 1010.0 |
| 20260507105006 | 2 | 273 | 9.7 | 16.1 | 0.00 | 0.00 | 0.00 | 48 | 1010.0 |
| 20260507104528 | 2 | 268 | 9.7 | 16.1 | 0.00 | 0.00 | 0.00 | 47 | 1009.9 |
| 20260507104010 | 2 | 283 | 9.7 | 17.7 | 0.00 | 0.00 | 0.00 | 47 | 1009.9 |
| 20260507103507 | 2 | 279 | 9.7 | 17.7 | 0.00 | 0.00 | 0.00 | 47 | 1009.8 |
| 20260507103029 | 2 | 262 | 9.7 | 16.1 | 0.00 | 0.00 | 0.00 | 47 | 1009.7 |
| 20260507102512 | 2 | 252 | 9.7 | 14.5 | 0.00 | 0.00 | 0.00 | 48 | 1009.7 |
| 20260507101527 | 2 | 265 | 9.7 | 16.1 | 0.00 | 0.00 | 0.00 | 48 | 1009.7 |
| 20260507101005 | 2 | 257 | 11.3 | 16.1 | 0.00 | 0.00 | 0.00 | 48 | 1009.7 |
| 20260507100504 | 2 | 273 | 11.3 | 14.5 | 0.00 | 0.00 | 0.00 | 48 | 1009.7 |
| 20260507100029 | 2 | 263 | 9.7 | 14.5 | 0.00 | 0.00 | 0.00 | 48 | 1009.7 |
| 20260507095508 | 2 | 253 | 11.3 | 14.5 | 0.00 | 0.00 | 0.00 | 48 | 1009.8 |
| 20260507095012 | 2 | 254 | 11.3 | 16.1 | 0.00 | 0.00 | 0.00 | 47 | 1009.8 |
| 20260507094525 | 2 | 266 | 11.3 | 16.1 | 0.00 | 0.00 | 0.00 | 47 | 1009.8 |
| 20260507094007 | 2 | 261 | 8.0 | 16.1 | 0.00 | 0.00 | 0.00 | 48 | 1009.8 |
| 20260507093508 | 2 | 263 | 11.3 | 16.1 | 0.00 | 0.00 | 0.00 | 47 | 1009.8 |
| 20260507093032 | 2 | 262 | 11.3 | 16.1 | 0.00 | 0.00 | 0.00 | 47 | 1009.8 |
| 20260507092514 | 2 | 259 | 11.3 | 16.1 | 0.00 | 0.00 | 0.00 | 47 | 1009.8 |
| 20260507092007 | 2 | 246 | 11.3 | 16.1 | 0.00 | 0.00 | 0.00 | 46 | 1009.8 |
| 20260507091548 | 2 | 254 | 11.3 | 16.1 | 0.00 | 0.00 | 0.00 | 46 | 1009.7 |
| 20260507090511 | 2 | 274 | 9.7 | 16.1 | 0.00 | 0.00 | 0.00 | 46 | 1009.7 |
| 20260507085506 | 2 | 281 | 9.7 | 16.1 | 0.00 | 0.00 | 0.00 | 47 | 1009.7 |
| 20260507085008 | 2 | 260 | 11.3 | 16.1 | 0.00 | 0.00 | 0.00 | 48 | 1009.7 |
| 20260507084527 | 2 | 261 | 9.7 | 17.7 | 0.00 | 0.00 | 0.00 | 50 | 1009.7 |
| 20260507084008 | 2 | 267 | 9.7 | 17.7 | 0.00 | 0.00 | 0.00 | 51 | 1009.7 |
| 20260507083026 | 2 | 259 | 9.7 | 12.9 | 0.00 | 0.00 | 0.00 | 50 | 1009.6 |
| 20260507082508 | 2 | 269 | 6.4 | 14.5 | 0.00 | 0.00 | 0.00 | 50 | 1009.6 |
| 20260507081538 | 2 | 263 | 11.3 | 16.1 | 0.00 | 0.00 | 0.00 | 49 | 1009.7 |
| 20260507081007 | 2 | 256 | 9.7 | 14.5 | 0.00 | 0.00 | 0.00 | 48 | 1009.6 |
| 20260507080510 | 2 | 279 | 9.7 | 14.5 | 0.00 | 0.00 | 0.00 | 48 | 1009.7 |
| 20260507080027 | 2 | 267 | 9.7 | 16.1 | 0.00 | 0.00 | 0.00 | 47 | 1009.7 |
| 20260507075511 | 3 | 257 | 8.0 | 16.1 | 0.00 | 0.00 | 0.00 | 46 | 1009.7 |
| 20260507075014 | 3 | 263 | 9.7 | 14.5 | 0.00 | 0.00 | 0.00 | 45 | 1009.8 |
| 20260507074531 | 3 | 269 | 8.0 | 14.5 | 0.00 | 0.00 | 0.00 | 45 | 1009.9 |
| 20260507074005 | 3 | 274 | 8.0 | 16.1 | 0.00 | 0.00 | 0.00 | 44 | 1010.0 |
| 20260507073023 | 3 | 273 | 9.7 | 14.5 | 0.00 | 0.00 | 0.00 | 44 | 1010.0 |
| 20260507072511 | 3 | 273 | 9.7 | 16.1 | 0.00 | 0.00 | 0.00 | 44 | 1010.0 |
| 20260507072008 | 3 | 248 | 8.0 | 16.1 | 0.00 | 0.00 | 0.00 | 44 | 1010.0 |
| 20260507071526 | 3 | 247 | 9.7 | 14.5 | 0.00 | 0.00 | 0.00 | 43 | 1010.0 |
| 20260507071004 | 3 | 266 | 9.7 | 14.5 | 0.00 | 0.00 | 0.00 | 43 | 1010.0 |
| 20260507070013 | 3 | 262 | 9.7 | 14.5 | 0.00 | 0.00 | 0.00 | 42 | 1010.0 |
| 20260507065004 | 4 | 251 | 9.7 | 16.1 | 0.00 | 0.00 | 0.00 | 42 | 1009.9 |
| 20260507064519 | 4 | 255 | 6.4 | 16.1 | 0.00 | 0.00 | 0.00 | 41 | 1010.0 |
| 20260507062508 | 5 | 267 | 9.7 | 16.1 | 0.00 | 0.00 | 0.00 | 40 | 1010.1 |
| 20260507062006 | 5 | 257 | 11.3 | 16.1 | 0.00 | 0.00 | 0.00 | 41 | 1010.2 |
| 20260507061529 | 5 | 243 | 9.7 | 16.1 | 0.00 | 0.00 | 0.00 | 41 | 1010.2 |
| 20260507061008 | 5 | 261 | 11.3 | 16.1 | 0.00 | 0.00 | 0.00 | 40 | 1010.2 |
| 20260507060007 | 5 | 252 | 9.7 | 16.1 | 0.00 | 0.00 | 0.00 | 40 | 1010.2 |
| 20260507054514 | 5 | 238 | 9.7 | 16.1 | 0.00 | 0.00 | 0.00 | 40 | 1010.2 |
| 20260507053018 | 5 | 272 | 8.0 | 12.9 | 0.00 | 0.00 | 0.00 | 41 | 1010.2 |
| 20260507052007 | 5 | 246 | 6.4 | 8.0 | 0.00 | 0.00 | 0.00 | 41 | 1010.3 |
| 20260507051521 | 5 | 246 | 4.8 | 9.7 | 0.00 | 0.00 | 0.00 | 41 | 1010.2 |
| 20260507051009 | 5 | 242 | 4.8 | 9.7 | 0.00 | 0.00 | 0.00 | 41 | 1010.2 |
| 20260507050506 | 5 | 250 | 4.8 | 11.3 | 0.00 | 0.00 | 0.00 | 43 | 1010.3 |
| 20260507050029 | 3 | 250 | 8.0 | 11.3 | 0.00 | 0.00 | 0.00 | 46 | 1010.4 |
| 20260507045508 | 3 | 121 | 1.6 | 3.2 | 0.00 | 0.00 | 0.00 | 49 | 1010.4 |
| 20260507044526 | 3 | 121 | 1.6 | 4.8 | 0.00 | 0.00 | 0.00 | 48 | 1010.4 |
| 20260507043507 | 3 | 121 | 1.6 | 3.2 | 0.00 | 0.00 | 0.00 | 50 | 1010.6 |
| 20260507041523 | 3 | 121 | 0.0 | 3.2 | 0.00 | 0.00 | 0.00 | 51 | 1010.9 |
| 20260507040023 | 4 | 121 | 0.0 | 3.2 | 0.00 | 0.00 | 0.00 | 49 | 1011.1 |
| 20260507035507 | 5 | 121 | 0.0 | 3.2 | 0.00 | 0.00 | 0.00 | 48 | 1011.1 |
| 20260507035011 | 5 | 121 | 0.0 | 3.2 | 0.00 | 0.00 | 0.00 | 48 | 1011.2 |
| 20260507034522 | 6 | 121 | 0.0 | 3.2 | 0.00 | 0.00 | 0.00 | 45 | 1011.3 |
| 20260507034007 | 6 | 121 | 0.0 | 1.6 | 0.00 | 0.00 | 0.00 | 48 | 1011.3 |
| 20260507033507 | 6 | 121 | 0.0 | 3.2 | 0.00 | 0.00 | 0.00 | 49 | 1011.3 |
| 20260507033015 | 6 | 121 | 0.0 | 3.2 | 0.00 | 0.00 | 0.00 | 49 | 1011.3 |
| 20260507031520 | 7 | 121 | 1.6 | 3.2 | 0.00 | 0.00 | 0.00 | 47 | 1011.6 |
| 20260507030510 | 7 | 121 | 0.0 | 3.2 | 0.00 | 0.00 | 0.00 | 44 | 1011.7 |
| 20260507030025 | 7 | 121 | 0.0 | 3.2 | 0.00 | 0.00 | 0.00 | 45 | 1011.6 |
| 20260507025007 | 7 | 121 | 0.0 | 3.2 | 0.00 | 0.00 | 0.00 | 43 | 1011.7 |
| 20260507024006 | 7 | 121 | 0.0 | 3.2 | 0.00 | 0.00 | 0.00 | 38 | 1011.7 |
| 20260507023510 | 8 | 121 | 0.0 | 3.2 | 0.00 | 0.00 | 0.00 | 37 | 1011.8 |
| 20260507023025 | 8 | 121 | 0.0 | 4.8 | 0.00 | 0.00 | 0.00 | 39 | 1011.8 |
| 20260507022510 | 8 | 121 | 1.6 | 4.8 | 0.00 | 0.00 | 0.00 | 34 | 1011.8 |
| 20260507022011 | 8 | 141 | 1.6 | 3.2 | 0.00 | 0.00 | 0.00 | 34 | 1011.8 |
| 20260507021516 | 8 | 141 | 1.6 | 4.8 | 0.00 | 0.00 | 0.00 | 34 | 1011.9 |
| 20260507014527 | 11 | 287 | 1.6 | 3.2 | 0.00 | 0.00 | 0.00 | 26 | 1012.0 |
| 20260507012514 | 11 | 339 | 0.0 | 3.2 | 0.00 | 0.00 | 0.00 | 26 | 1011.9 |
| 20260507012010 | 11 | 339 | 1.6 | 4.8 | 0.00 | 0.00 | 0.00 | 27 | 1012.0 |
| 20260507011531 | 11 | 337 | 3.2 | 4.8 | 0.00 | 0.00 | 0.00 | 25 | 1012.0 |
| 20260507010020 | 12 | 324 | 4.8 | 12.9 | 0.00 | 0.00 | 0.00 | 22 | 1011.9 |
| 20260507005004 | 12 | 263 | 6.4 | 12.9 | 0.00 | 0.00 | 0.00 | 22 | 1012.0 |
| 20260507004503 | 12 | 271 | 6.4 | 14.5 | 0.00 | 0.00 | 0.00 | 22 | 1011.9 |
| 20260507004004 | 12 | 248 | 3.2 | 14.5 | 0.00 | 0.00 | 0.00 | 22 | 1012.0 |
| 20260507003504 | 12 | 277 | 1.6 | 12.9 | 0.00 | 0.00 | 0.00 | 21 | 1011.9 |
| 20260507003009 | 13 | 257 | 6.4 | 12.9 | 0.00 | 0.00 | 0.00 | 22 | 1012.0 |
| 20260507002503 | 13 | 266 | 6.4 | 11.3 | 0.00 | 0.00 | 0.00 | 23 | 1011.9 |
| 20260507002006 | 12 | 278 | 3.2 | 8.0 | 0.00 | 0.00 | 0.00 | 23 | 1012.0 |
| 20260507001516 | 12 | 323 | 4.8 | 11.3 | 0.00 | 0.00 | 0.00 | 23 | 1012.2 |
| 20260507000503 | 12 | 280 | 3.2 | 16.1 | 0.00 | 0.00 | 0.00 | 24 | 1012.3 |
| 20260506235504 | 12 | 261 | 4.8 | 12.9 | 0.00 | 0.00 | 0.00 | 23 | 1012.3 |
| 20260506234525 | 12 | 297 | 9.7 | 17.7 | 0.00 | 0.00 | 0.00 | 23 | 1012.5 |
| 20260506233004 | 13 | 277 | 6.4 | 17.7 | 0.00 | 0.00 | 0.00 | 25 | 1012.7 |
| 20260506232506 | 13 | 267 | 11.3 | 17.7 | 0.00 | 0.00 | 0.00 | 24 | 1012.7 |
| 20260506232004 | 13 | 274 | 8.0 | 17.7 | 0.00 | 0.00 | 0.00 | 23 | 1012.6 |
| 20260506231512 | 13 | 288 | 9.7 | 17.7 | 0.00 | 0.00 | 0.00 | 24 | 1012.6 |
| 20260506231005 | 13 | 284 | 4.8 | 19.3 | 0.00 | 0.00 | 0.00 | 20 | 1012.6 |
| 20260506230506 | 13 | 254 | 9.7 | 19.3 | 0.00 | 0.00 | 0.00 | 23 | 1012.8 |
| 20260506230015 | 13 | 316 | 9.7 | 20.9 | 0.00 | 0.00 | 0.00 | 24 | 1012.7 |
| 20260506224008 | 13 | 297 | 6.4 | 24.1 | 0.00 | 0.00 | 0.00 | 26 | 1012.8 |
| 20260506223508 | 13 | 272 | 14.5 | 24.1 | 0.00 | 0.00 | 0.00 | 26 | 1012.9 |
| 20260506223021 | 13 | 279 | 11.3 | 22.5 | 0.00 | 0.00 | 0.00 | 26 | 1013.0 |
| 20260506222509 | 13 | 288 | 12.9 | 19.3 | 0.00 | 0.00 | 0.00 | 26 | 1012.9 |
| 20260506222009 | 13 | 333 | 12.9 | 29.0 | 0.00 | 0.00 | 0.00 | 23 | 1012.9 |
| 20260506215006 | 13 | 360 | 16.1 | 24.1 | 0.00 | 0.00 | 0.00 | 24 | 1013.4 |
| 20260506214515 | 13 | 330 | 14.5 | 24.1 | 0.00 | 0.00 | 0.00 | 23 | 1013.6 |
| 20260506214007 | 13 | 306 | 14.5 | 29.0 | 0.00 | 0.00 | 0.00 | 25 | 1013.6 |
| 20260506213511 | 13 | 327 | 12.9 | 29.0 | 0.00 | 0.00 | 0.00 | 25 | 1013.7 |
| 20260506212508 | 13 | 315 | 16.1 | 25.7 | 0.00 | 0.00 | 0.00 | 23 | 1013.9 |
| 20260506212006 | 13 | 302 | 14.5 | 37.0 | 0.00 | 0.00 | 0.00 | 26 | 1013.9 |
| 20260506211525 | 13 | 302 | 16.1 | 37.0 | 0.00 | 0.00 | 0.00 | 26 | 1014.0 |
| 20260506211007 | 13 | 326 | 11.3 | 25.7 | 0.00 | 0.00 | 0.00 | 27 | 1014.0 |
| 20260506210507 | 13 | 323 | 11.3 | 25.7 | 0.00 | 0.00 | 0.00 | 24 | 1014.3 |
| 20260506210010 | 13 | 283 | 9.7 | 22.5 | 0.00 | 0.00 | 0.00 | 27 | 1014.3 |
| 20260506205003 | 12 | 352 | 9.7 | 22.5 | 0.00 | 0.00 | 0.00 | 27 | 1014.6 |
| 20260506203508 | 12 | 333 | 17.7 | 22.5 | 0.00 | 0.00 | 0.00 | 26 | 1014.8 |
| 20260506201538 | 12 | 248 | 12.9 | 27.4 | 0.00 | 0.00 | 0.00 | 26 | 1015.2 |
| 20260506201008 | 12 | 330 | 16.1 | 25.7 | 0.00 | 0.00 | 0.00 | 27 | 1015.1 |
| 20260506200509 | 12 | 294 | 16.1 | 25.7 | 0.00 | 0.00 | 0.00 | 28 | 1015.2 |
| 20260506200027 | 12 | 329 | 14.5 | 29.0 | 0.00 | 0.00 | 0.00 | 31 | 1015.3 |
| 20260506195506 | 12 | 336 | 11.3 | 29.0 | 0.00 | 0.00 | 0.00 | 29 | 1015.3 |
| 20260506195016 | 11 | 339 | 9.7 | 20.9 | 0.00 | 0.00 | 0.00 | 29 | 1015.3 |
| 20260506193508 | 11 | 314 | 17.7 | 27.4 | 0.00 | 0.00 | 0.00 | 27 | 1015.7 |
| 20260506190023 | 11 | 296 | 14.5 | 27.4 | 0.00 | 0.00 | 0.00 | 30 | 1016.4 |
| 20260506185509 | 11 | 336 | 17.7 | 27.4 | 0.00 | 0.00 | 0.00 | 28 | 1016.5 |
| 20260506185007 | 10 | 338 | 11.3 | 27.4 | 0.00 | 0.00 | 0.00 | 30 | 1016.6 |
| 20260506184527 | 11 | 323 | 19.3 | 27.4 | 0.00 | 0.00 | 0.00 | 29 | 1016.7 |
| 20260506184011 | 10 | 304 | 9.7 | 24.1 | 0.00 | 0.00 | 0.00 | 28 | 1016.7 |
| 20260506183509 | 10 | 286 | 12.9 | 24.1 | 0.00 | 0.00 | 0.00 | 30 | 1016.9 |
| 20260506181008 | 10 | 298 | 14.5 | 27.4 | 0.00 | 0.00 | 0.00 | 32 | 1017.1 |
| 20260506175510 | 9 | 360 | 14.5 | 19.3 | 0.00 | 0.00 | 0.00 | 32 | 1017.6 |
| 20260506174526 | 8 | 271 | 16.1 | 27.4 | 0.00 | 0.00 | 0.00 | 32 | 1017.7 |
| 20260506174012 | 9 | 352 | 11.3 | 25.7 | 0.00 | 0.00 | 0.00 | 31 | 1017.8 |
| 20260506173508 | 8 | 360 | 14.5 | 25.7 | 0.00 | 0.00 | 0.00 | 31 | 1017.8 |
| 20260506173026 | 8 | 306 | 11.3 | 24.1 | 0.00 | 0.00 | 0.00 | 34 | 1017.8 |
| 20260506172509 | 8 | 319 | 11.3 | 22.5 | 0.00 | 0.00 | 0.00 | 31 | 1018.0 |
| 20260506172011 | 8 | 335 | 8.0 | 24.1 | 0.00 | 0.00 | 0.00 | 33 | 1018.0 |
| 20260506171519 | 8 | 329 | 17.7 | 24.1 | 0.00 | 0.00 | 0.00 | 33 | 1018.0 |
| 20260506171008 | 8 | 340 | 14.5 | 22.5 | 0.00 | 0.00 | 0.00 | 31 | 1018.1 |
| 20260506163513 | 7 | 360 | 3.2 | 22.5 | 0.00 | 0.00 | 0.00 | 36 | 1018.2 |
| 20260506163038 | 8 | 333 | 12.9 | 22.5 | 0.00 | 0.00 | 0.00 | 36 | 1018.2 |
| 20260506162512 | 7 | 331 | 11.3 | 29.0 | 0.00 | 0.00 | 0.00 | 33 | 1018.3 |
| 20260506162011 | 7 | 301 | 12.9 | 29.0 | 0.00 | 0.00 | 0.00 | 34 | 1018.4 |
| 20260506161527 | 7 | 273 | 14.5 | 19.3 | 0.00 | 0.00 | 0.00 | 36 | 1018.5 |
| 20260506161004 | 7 | 344 | 11.3 | 19.3 | 0.00 | 0.00 | 0.00 | 36 | 1018.5 |